Weather History for Belmar-Farmingdale, NJ

Change the Weather History Date:

Saturday, December 21, 2013

  Actual Average Record
Temperature  
Mean Temperature 60 °F -  
Max Temperature 68 °F 40 °F 68 °F (2013)
Min Temperature 53 °F 27 °F 10 °F (2004)
Degree Days  
Heating Degree Days 4    
Growing Degree Days 10 (Base 50)    
Moisture  
Dew Point 48 °F    
Average Humidity 69    
Maximum Humidity 82    
Minimum Humidity 56    
Precipitation  
Precipitation 0.00 in - - ()
Sea Level Pressure  
Sea Level Pressure 29.97 in    
Wind  
Wind Speed 9 mph (SW)    
Max Wind Speed 16 mph    
Max Gust Speed 23 mph    
Visibility 10 miles    
Events      
Averages and records for this station are not official NWS values.
T = Trace of Precipitation, MM = Missing Value Source: NWS Daily Summary

Daily Weather History Graph

Daily Weather History Graph

Search for Another Location

Airport:

Trip Planner

Search our weather history database for the weather conditions in past years. The results will help you decide how hot, cold, wet, or windy it might be!

Date:

Astronomy

Dec. 21, 2013 Rise Set
Actual Time 7:15 AM EST 4:34 PM EST
Civil Twilight 6:44 AM EST 5:04 PM EST
Nautical Twilight 6:10 AM EST 5:38 PM EST
Astronomical Twilight 5:37 AM EST 6:12 PM EST
Moon 8:48 PM EST (12/21) 9:40 AM EST (12/21)
Length of Visible Light 10h 19m
Length of Day
9h 18m
Waning Gibbous, 84% of the Moon is Illuminated
Dec 21
Waning Gibbous
Dec 25
Last Quarter
Jan 1
New
Jan 7
First Quarter
Jan 15
Full

Hourly Weather History & Observations

Time (EST) Temp. Dew Point Humidity Pressure Visibility Wind Dir Wind Speed Gust Speed Precip Events Conditions
12:15 AM 55.4 °F 46.4 °F 72% 30.00 in 10.0 mi WSW 9.2 mph - N/A   Mostly Cloudy
12:35 AM 55.4 °F 48.2 °F 77% 30.00 in 10.0 mi WSW 8.1 mph - N/A   Mostly Cloudy
12:55 AM 55.4 °F 46.4 °F 72% 29.99 in 10.0 mi SW 10.4 mph - N/A   Overcast
1:15 AM 55.4 °F 46.4 °F 72% 29.99 in 10.0 mi SW 9.2 mph 16.1 mph N/A   Overcast
1:35 AM 55.4 °F 46.4 °F 72% 29.99 in 10.0 mi WSW 8.1 mph - N/A   Scattered Clouds
1:55 AM 55.4 °F 46.4 °F 72% 29.99 in 10.0 mi SW 6.9 mph - N/A   Partly Cloudy
2:15 AM 55.4 °F 46.4 °F 72% 29.99 in 10.0 mi SW 9.2 mph - N/A   Scattered Clouds
2:35 AM 55.4 °F 46.4 °F 72% 30.00 in 10.0 mi WSW 8.1 mph - N/A   Clear
2:55 AM 55.4 °F 46.4 °F 72% 30.01 in 10.0 mi SW 9.2 mph - N/A   Clear
3:15 AM 55.4 °F 46.4 °F 72% 30.00 in 10.0 mi SW 8.1 mph - N/A   Scattered Clouds
3:35 AM 55.4 °F 46.4 °F 72% 30.00 in 10.0 mi WSW 9.2 mph - N/A   Mostly Cloudy
3:55 AM 55.4 °F 46.4 °F 72% 29.99 in 10.0 mi SW 8.1 mph - N/A   Scattered Clouds
4:15 AM 53.6 °F 46.4 °F 77% 29.99 in 10.0 mi SW 6.9 mph - N/A   Clear
4:35 AM 53.6 °F 46.4 °F 77% 29.98 in 10.0 mi SW 8.1 mph - N/A   Clear
4:55 AM 53.6 °F 46.4 °F 77% 29.98 in 10.0 mi SW 6.9 mph - N/A   Clear
5:15 AM 53.6 °F 46.4 °F 77% 29.99 in 10.0 mi SW 9.2 mph - N/A   Mostly Cloudy
5:35 AM 53.6 °F 44.6 °F 72% 29.99 in 10.0 mi SW 5.8 mph - N/A   Mostly Cloudy
5:55 AM 53.6 °F 44.6 °F 72% 29.99 in 10.0 mi SW 6.9 mph - N/A   Mostly Cloudy
6:15 AM 53.6 °F 44.6 °F 72% 30.00 in 10.0 mi SW 9.2 mph - N/A   Scattered Clouds
6:35 AM 53.6 °F 44.6 °F 72% 30.00 in 10.0 mi SW 6.9 mph - N/A   Clear
6:55 AM 53.6 °F 44.6 °F 72% 30.00 in 10.0 mi SW 6.9 mph - N/A   Clear
7:15 AM 53.6 °F 44.6 °F 72% 30.00 in 10.0 mi WSW 6.9 mph - N/A   Clear
7:35 AM 53.6 °F 44.6 °F 72% 30.00 in 10.0 mi SW 8.1 mph - N/A   Clear
7:55 AM 53.6 °F 44.6 °F 72% 30.00 in 10.0 mi SW 8.1 mph - N/A   Mostly Cloudy
8:15 AM 53.6 °F 44.6 °F 72% 30.01 in 10.0 mi SW 9.2 mph - N/A   Overcast
8:35 AM 53.6 °F 44.6 °F 72% 30.01 in 10.0 mi SSW 8.1 mph - N/A   Overcast
8:55 AM 53.6 °F 44.6 °F 72% 30.01 in 10.0 mi SW 9.2 mph 16.1 mph N/A   Overcast
9:15 AM 55.4 °F 44.6 °F 67% 30.01 in 10.0 mi SW 8.1 mph - N/A   Overcast
9:35 AM 55.4 °F 46.4 °F 72% 30.02 in 10.0 mi SW 9.2 mph - N/A   Overcast
9:55 AM 55.4 °F 46.4 °F 72% 30.01 in 10.0 mi SW 8.1 mph - N/A   Overcast
10:15 AM 57.2 °F 46.4 °F 67% 30.01 in 10.0 mi SW 10.4 mph 16.1 mph N/A   Overcast
10:35 AM 57.2 °F 46.4 °F 67% 30.01 in 10.0 mi SW 9.2 mph - N/A   Overcast
10:55 AM 59.0 °F 46.4 °F 63% 30.00 in 10.0 mi SW 5.8 mph - N/A   Overcast
11:15 AM 59.0 °F 48.2 °F 67% 29.99 in 10.0 mi SW 10.4 mph 16.1 mph N/A   Overcast
11:35 AM 60.8 °F 48.2 °F 63% 29.97 in 10.0 mi SW 9.2 mph - N/A   Overcast
11:55 AM 62.6 °F 48.2 °F 59% 29.96 in 10.0 mi SW 10.4 mph 19.6 mph N/A   Scattered Clouds
12:15 PM 64.4 °F 50.0 °F 59% 29.95 in 10.0 mi SW 8.1 mph - N/A   Clear
12:35 PM 66.2 °F 50.0 °F 56% 29.94 in 10.0 mi SW 11.5 mph - N/A   Clear
12:55 PM 66.2 °F 51.8 °F 60% 29.93 in 10.0 mi SW 12.7 mph 19.6 mph N/A   Mostly Cloudy
1:15 PM 66.2 °F 51.8 °F 60% 29.93 in 10.0 mi SW 10.4 mph 17.3 mph N/A   Overcast
1:35 PM 66.2 °F 51.8 °F 60% 29.92 in 10.0 mi SW 10.4 mph 16.1 mph N/A   Mostly Cloudy
1:55 PM 68.0 °F 51.8 °F 56% 29.92 in 10.0 mi WSW 12.7 mph 20.7 mph N/A   Partly Cloudy
2:15 PM 68.0 °F 51.8 °F 56% 29.91 in 10.0 mi SSW 13.8 mph 21.9 mph N/A   Clear
2:35 PM 68.0 °F 51.8 °F 56% 29.91 in 10.0 mi SSW 11.5 mph 19.6 mph N/A   Clear
2:55 PM 68.0 °F 51.8 °F 56% 29.92 in 10.0 mi SW 12.7 mph 20.7 mph N/A   Clear
3:15 PM 68.0 °F 51.8 °F 56% 29.92 in 10.0 mi SW 16.1 mph 21.9 mph N/A   Clear
3:35 PM 66.2 °F 51.8 °F 60% 29.92 in 10.0 mi SW 10.4 mph 23.0 mph N/A   Clear
3:55 PM 66.2 °F 51.8 °F 60% 29.93 in 10.0 mi SW 13.8 mph 18.4 mph N/A   Clear
4:15 PM 66.2 °F 51.8 °F 60% 29.93 in 10.0 mi SW 10.4 mph 18.4 mph N/A   Scattered Clouds
4:35 PM 64.4 °F 50.0 °F 59% 29.94 in 10.0 mi SW 11.5 mph 19.6 mph N/A   Scattered Clouds
4:55 PM 64.4 °F 50.0 °F 59% 29.95 in 10.0 mi SW 10.4 mph 17.3 mph N/A   Clear
5:15 PM 64.4 °F 50.0 °F 59% 29.96 in 10.0 mi SW 8.1 mph - N/A   Clear
5:35 PM 64.4 °F 50.0 °F 59% 29.97 in 10.0 mi WSW 6.9 mph - N/A   Clear
5:55 PM 62.6 °F 50.0 °F 63% 29.97 in 10.0 mi SW 8.1 mph - N/A   Clear
6:15 PM 62.6 °F 50.0 °F 63% 29.97 in 10.0 mi South 5.8 mph - N/A   Clear
6:35 PM 57.2 °F 46.4 °F 67% 29.98 in 10.0 mi South 5.8 mph - N/A   Clear
6:55 PM 57.2 °F 46.4 °F 67% 29.98 in 10.0 mi South 5.8 mph - N/A   Clear
7:15 PM 55.4 °F 46.4 °F 72% 29.98 in 10.0 mi SSW 5.8 mph - N/A   Scattered Clouds
7:35 PM 55.4 °F 48.2 °F 77% 29.98 in 10.0 mi South 8.1 mph - N/A   Partly Cloudy
7:55 PM 55.4 °F 48.2 °F 77% 29.98 in 10.0 mi South 8.1 mph - N/A   Clear
8:15 PM 57.2 °F 48.2 °F 72% 29.97 in 10.0 mi SSW 8.1 mph - N/A   Clear
8:35 PM 57.2 °F 48.2 °F 72% 29.97 in 10.0 mi SSW 9.2 mph - N/A   Clear
8:55 PM 57.2 °F 50.0 °F 77% 29.97 in 10.0 mi South 9.2 mph - N/A   Clear
9:15 PM 57.2 °F 50.0 °F 77% 29.96 in 10.0 mi South 6.9 mph - N/A   Clear
9:35 PM 55.4 °F 48.2 °F 77% 29.96 in 10.0 mi SSW 4.6 mph - N/A   Clear
9:55 PM 55.4 °F 48.2 °F 77% 29.96 in 10.0 mi South 6.9 mph - N/A   Clear
10:15 PM 57.2 °F 50.0 °F 77% 29.95 in 10.0 mi SSW 8.1 mph - N/A   Clear
10:35 PM 57.2 °F 51.8 °F 82% 29.94 in 10.0 mi SSW 9.2 mph - N/A   Partly Cloudy
10:55 PM 60.8 °F 53.6 °F 77% 29.94 in 10.0 mi SSW 12.7 mph 21.9 mph N/A   Partly Cloudy
11:15 PM 60.8 °F 53.6 °F 77% 29.94 in 10.0 mi SSW 13.8 mph 19.6 mph N/A   Clear
11:35 PM 62.6 °F 53.6 °F 72% 29.94 in 10.0 mi SSW 13.8 mph 20.7 mph N/A   Clear
11:55 PM 62.6 °F 53.6 °F 72% 29.94 in 10.0 mi SW 13.8 mph 20.7 mph N/A   Scattered Clouds